Weather History for Shirley, NY

Change the Weather History Date:

Thursday, March 28, 2013

  Actual Average (KISP) Record (KISP)
Temperature  
Mean Temperature 42 °F 43 °F  
Max Temperature 50 °F 51 °F 79 °F (1991)
Min Temperature 36 °F 35 °F 18 °F (1990)
Degree Days  
Heating Degree Days 23 22  
Month to date heating degree days 732  
Since 1 July heating degree days 4627  
Cooling Degree Days 0 0  
Month to date cooling degree days 0  
Year to date cooling degree days 0  
Moisture  
Dew Point 29 °F    
Average Humidity 58    
Maximum Humidity 70    
Minimum Humidity 46    
Precipitation  
Precipitation 0.00 in 0.14 in 1.29 in (2005)
Month to date precipitation 4.02  
Year to date precipitation 10.92  
Snow  
Snow 0.00 in 0.10 in 5.00 in (1984)
Month to date snowfall 4.3  
Since 1 July snowfall 24.0  
Snow Depth -    
Sea Level Pressure  
Sea Level Pressure 29.99 in    
Wind  
Wind Speed 10 mph (NW)    
Max Wind Speed 14 mph    
Max Gust Speed 22 mph    
Visibility 10 miles    
Events Rain    
T = Trace of Precipitation, MM = Missing Value Source: NWS Daily Summary

Daily Weather History Graph

Daily Weather History Graph

Search for Another Location

Airport:

Trip Planner

Search our weather history database for the weather conditions in past years. The results will help you decide how hot, cold, wet, or windy it might be!

Date:

Astronomy

Mar. 28, 2013 Rise Set
Actual Time 6:41 AM EDT 7:12 PM EDT
Civil Twilight 6:13 AM EDT 7:39 PM EDT
Nautical Twilight 5:41 AM EDT 8:12 PM EDT
Astronomical Twilight 5:07 AM EDT 8:45 PM EDT
Moon 9:01 PM EDT (3/28) 7:06 AM EDT (3/28)
Length of Visible Light 13h 26m
Length of Day
12h 31m
Full, 98% of the Moon is Illuminated
Mar 28
Full
Apr 3
Last Quarter
Apr 10
New
Apr 18
First Quarter
Apr 25
Full

Hourly Weather History & Observations

Time (EDT) Temp. Windchill Dew Point Humidity Pressure Visibility Wind Dir Wind Speed Gust Speed Precip Events Conditions
12:56 AM 39.9 °F 33.9 °F 27.0 °F 60% 29.94 in 10.0 mi NW 9.2 mph - N/A   Clear
1:56 AM 39.0 °F 32.8 °F 27.0 °F 62% 29.93 in 10.0 mi NW 9.2 mph - N/A   Clear
2:56 AM 37.9 °F 30.9 °F 28.0 °F 68% 29.93 in 10.0 mi WNW 10.4 mph - N/A   Clear
3:56 AM 37.9 °F 30.9 °F 28.0 °F 68% 29.93 in 10.0 mi NW 10.4 mph - N/A   Clear
4:56 AM 37.0 °F 31.0 °F 27.0 °F 67% 29.94 in 10.0 mi NW 8.1 mph - N/A   Clear
5:56 AM 36.0 °F 29.6 °F 27.0 °F 70% 29.94 in 10.0 mi NW 8.1 mph - N/A   Clear
6:56 AM 36.0 °F 29.6 °F 27.0 °F 70% 29.95 in 10.0 mi NW 8.1 mph - N/A   Partly Cloudy
7:56 AM 41.0 °F 34.7 °F 28.9 °F 62% 29.97 in 10.0 mi NNW 10.4 mph - N/A   Partly Cloudy
8:56 AM 43.0 °F 36.0 °F 28.0 °F 56% 29.98 in 10.0 mi NNW 13.8 mph 21.9 mph N/A   Mostly Cloudy
9:56 AM 44.1 °F 37.7 °F 28.9 °F 55% 29.98 in 10.0 mi NNW 12.7 mph - N/A   Overcast
10:56 AM 44.1 °F 37.7 °F 30.9 °F 60% 29.99 in 10.0 mi North 12.7 mph - N/A   Overcast
11:11 AM 42.8 °F 36.2 °F 32.0 °F 66% 30.00 in 10.0 mi North 12.7 mph - 0.00 in Rain Light Rain
11:56 AM 45.0 °F 38.9 °F 33.1 °F 63% 30.00 in 10.0 mi NNW 12.7 mph - 0.00 in Rain Light Rain
12:56 PM 48.0 °F - 30.9 °F 52% 29.99 in 10.0 mi NNW 12.7 mph - 0.00 in   Overcast
1:56 PM 48.9 °F - 30.0 °F 48% 29.99 in 10.0 mi NNW 12.7 mph 17.3 mph N/A   Overcast
2:56 PM 48.9 °F - 28.9 °F 46% 29.98 in 10.0 mi NW 12.7 mph 17.3 mph N/A   Overcast
3:56 PM 48.0 °F - 30.0 °F 50% 29.98 in 10.0 mi NNW 10.4 mph - N/A   Overcast
4:56 PM 46.9 °F - 30.0 °F 52% 29.99 in 10.0 mi NW 8.1 mph - N/A   Overcast
5:56 PM 48.0 °F - 30.0 °F 50% 30.00 in 10.0 mi NW 8.1 mph - N/A   Mostly Cloudy
6:56 PM 46.9 °F - 30.0 °F 52% 30.02 in 10.0 mi NW 6.9 mph - N/A   Overcast
7:56 PM 46.0 °F 42.5 °F 28.9 °F 51% 30.04 in 10.0 mi NW 6.9 mph - N/A   Mostly Cloudy
8:56 PM 46.0 °F 41.0 °F 30.0 °F 54% 30.06 in 10.0 mi NNW 10.4 mph - N/A   Overcast
9:56 PM 45.0 °F 41.2 °F 30.9 °F 58% 30.08 in 10.0 mi NW 6.9 mph - N/A   Overcast
10:56 PM 45.0 °F 42.6 °F 30.9 °F 58% 30.09 in 10.0 mi NW 4.6 mph - N/A   Overcast
11:56 PM 44.1 °F 40.1 °F 30.9 °F 60% 30.09 in 10.0 mi WNW 6.9 mph - N/A   Overcast